Home   Weather   Londrina   Past weeks

Flag for Brazil Past Weather in Londrina, Paraná, Brazil — Yesterday and Last 2 Weeks

Now
59 °F

Sunny.


Feels Like: 58 °F
Forecast: 55 / 70 °F
Wind: 7 mph from Southwest

Location: Londrina Aeroporto

Current Time: Apr 27, 2017 at 8:27:33 am

Latest Report: Apr 27, 2017 at 8:00 am


Visibility: 10 mi

Pressure: 30.07 "Hg (27.95 "Hg at 615m altitude)

Humidity: 88%

Dew Point: 55 °F

Location of LondrinaLocation

Past Weather in Londrina — Graph

°F

Londrina Temperature Yesterday

Maximum temperature yesterday: 73 °F (at 12:00 am)
Minimum temperature yesterday: 64 °F (at 8:26 am)
Average temperature yesterday: 69 °F

High & Low Weather Summary for the Past Weeks

 TemperatureHumidityPressure
High88 °F (Apr 15, 3:00 pm)100% (Apr 12, 6:00 pm)30.18 "Hg (Apr 12, 6:00 pm)
Low55 °F (Apr 27, 7:00 am)43% (Apr 15, 3:00 pm)29.80 "Hg (Apr 26, 5:00 am)
Average71 °F78%30.03 "Hg
* Reported Apr 12 7:00 am — Apr 27 7:00 am, Londrina, Weather by CustomWeather, © 2017

Note: Actual official high and low records may vary slightly from our data, if they occured in-between our weather recording intervals... More about our weather records

Advertising

Londrina Weather History for the Previous 24 Hours

Scroll right to see more
 ConditionsComfort  
Time TempWeatherWind HumidityBarometerVisibility
7:00 am
Thu, Apr 27
55 °FSunny.6 mph100%30.07 "Hg10 mi
6:00 am57 °FClear.8 mph94%30.01 "Hg10 mi
5:00 am57 °FClear.6 mph94%30.01 "Hg10 mi
4:00 am59 °FClear.13 mph94%30.01 "Hg10 mi
3:00 am61 °FClear.7 mph88%30.01 "Hg10 mi
2:00 am61 °FClear.9 mph94%30.04 "Hg10 mi
1:00 am63 °FClear.9 mph88%30.04 "Hg10 mi
12:00 am64 °FClear.7 mph94%30.04 "Hg10 mi
11:00 pm
Wed, Apr 26
66 °FClear.5 mph88%30.01 "Hg10 mi
10:00 pm66 °FClear.5 mph94%30.01 "Hg10 mi
9:00 pm66 °FPassing clouds.2 mph100%29.98 "HgN/A
8:00 pm68 °FFog.3 mph94%29.98 "Hg6 mi
7:00 pm68 °FPassing clouds.5 mph100%29.92 "HgN/A
6:00 pm70 °FPartly sunny.No wind88%29.92 "HgN/A
5:00 pm70 °FPartly sunny.3 mph83%29.92 "HgN/A
4:00 pm70 °FPartly sunny.5 mph94%29.89 "HgN/A
3:00 pm70 °FPartly sunny.2 mph88%30.01 "Hg6 mi
2:00 pm68 °FLight rain. Partly sunny.7 mph94%29.89 "Hg4 mi
1:00 pm66 °FLight rain. Partly sunny.3 mph100%29.89 "Hg3 mi
12:00 pm66 °FLight rain. Partly sunny.6 mph94%29.92 "Hg2 mi
11:11 am66 °FLight rain. Fog.5 mph94%29.92 "Hg1 mi
11:00 am64 °FRain. Partly sunny.6 mph100%29.92 "Hg3 mi
10:00 am64 °FLight rain. Partly sunny.3 mph100%29.89 "Hg3 mi
9:00 am64 °FStrong thunderstorms. Partly sunny.7 mph100%N/A2 mi
8:26 am64 °FStrong thunderstorms. Partly sunny.8 mph100%N/A1 mi
8:12 am66 °FStrong thunderstorms. Partly sunny.21 mph94%N/A1 mi
8:00 am68 °FThunderstorms. Partly sunny.23 mph88%N/A2 mi
Weather by CustomWeather, © 2017

See weather overviewHow to use our weather pages